Location: Borovka
(49.7741°N, 14.5280°E)
Time: 07:58:21
(UTC+00:00)

Cosmos 1602 - Pass Details

Date: 17 November 2025
Orbit: 366 x 374 km, 82.5° (Epoch: 12 December)

Event Time Altitude Azimuth Distance (km) Brightness Sun altitude
Rises 17:02:57 0° 349° (N) 2,290 7.0 -17.0°
Reaches altitude 10° 17:04:57 10° 348° (NNW) 1,434 6.0 -17.4°
Maximum altitude 17:08:04 80° 261° (W) 405 3.1 -17.9°
Drops below altitude 10° 17:11:10 10° 175° (S) 1,432 6.0 -18.4°
Sets 17:13:10 0° 174° (S) 2,287 7.0 -18.7°
